sat.trackr.live / text

‹ back to catalog

HULIANWANG DIGUI-82

NORAD 65817 · 2025-220A

PAYLOAD ACTIVE UNKNOWN

§ Identity

Operator
Country
PRC
Launch date
2025-09-27
Launch site
TAISC
Launch vehicle
Mass (kg)
RCS (m²)

External: N2YO · Heavens-Above · Gunter

§ Orbital elements

Epoch: 2026-05-25T04:44:27.232224Z

Period
108.73 min
Inclination
86.4984°
Eccentricity
0.0001378
Mean motion
13.24405788 rev/d
Perigee alt
1,166.9 km
Apogee alt
1,169.0 km
Semi-major
7,546.1 km
B*
5.0259e-5
RAAN
51.6205°
Arg perigee
65.0666°
Mean anomaly
295.0611°
Rev number
3,187

§ Raw data

HULIANWANG DIGUI-821 65817U 25220A   26145.19753741  .00000036  00000+0  50259-4 0  99962 65817  86.4984  51.6205 0001378  65.0666 295.0611 13.24405788 31870

JSON: /api/v1/satellites/65817 · /tle

For live sub-satellite position, see the globe view (requires WebGL).

§ Visibility from observer

Set your observer location to see the next 7 days of passes ≥ 10°. The values pass through the URL so the page stays shareable.

No JS? Fill the form by hand. The geolocation button needs JavaScript.